Home   Weather   Burgdorf   Past weeks
Flag for Germany

Past Weather in Burgdorf, Lower Saxony, Germany — Yesterday and Last 2 Weeks

Now
34 °F

Passing clouds.


Feels Like: 28 °F
Forecast: 42 / 28 °F
Wind: 7 mph from South

Location: Celle Airport

Current Time: Jan 25, 2020 at 6:47:39 pm

Latest Report: Jan 25, 2020 at 5:57 pm


Visibility: 5 mi

Pressure: 30.15 "Hg

Humidity: 93%

Dew Point: 32 °F

Location of BurgdorfLocation

Past Weather in Burgdorf — Graph

°F

Burgdorf Temperature Yesterday

Maximum temperature yesterday: 32 °F (at 12:20 pm)
Minimum temperature yesterday: 25 °F (at 5:20 am)
Average temperature yesterday: 30 °F

High & Low Weather Summary for the Past Weeks

 TemperatureHumidityPressure
High57 °F (Jan 15, 1:20 pm)100% (Jan 11, 6:20 am)30.92 "Hg (Jan 11, 6:20 am)
Low25 °F (Jan 24, 5:20 am)51% (Jan 15, 1:20 pm)29.68 "Hg (Jan 14, 6:20 am)
Average40 °F85%30.29 "Hg
* Reported Jan 10 5:20 pm — Jan 25 5:20 pm, Burgdorf. Weather by CustomWeather, © 2020

Note: Actual official high and low records may vary slightly from our data, if they occured in-between our weather recording intervals... More about our weather records

Burgdorf Weather History for the Previous 24 Hours

Scroll right to see more
 ConditionsComfort  
Time TempWeatherWind HumidityBarometerVisibility
5:20 pm
Sat, Jan 25
34 °FPassing clouds.8 mph93%30.15 "Hg5 mi
4:20 pm36 °FPartly sunny.6 mph87%30.15 "HgN/A
3:20 pm36 °FPartly sunny.6 mph87%30.15 "HgN/A
2:20 pm36 °FPartly sunny.6 mph93%30.15 "HgN/A
1:20 pm36 °FBroken clouds.6 mph93%30.15 "Hg5 mi
12:20 pm36 °FDrizzle. Partly sunny.7 mph93%30.18 "Hg3 mi
11:43 am36 °FPartly sunny.7 mph93%30.18 "Hg5 mi
11:20 am36 °FFog.6 mph93%30.18 "Hg3 mi
10:20 am34 °FDrizzle. Fog.5 mph100%30.18 "Hg2 mi
9:20 am34 °FDrizzle. Fog.3 mph93%30.18 "Hg2 mi
8:20 am34 °FDrizzle. Fog.3 mph93%30.15 "Hg1 mi
7:20 am34 °FDrizzle. Fog.5 mph93%30.15 "Hg1 mi
6:20 am32 °FDrizzle. Ice fog.5 mph100%30.15 "Hg1 mi
5:20 am32 °FIce fog.3 mph100%30.15 "Hg1 mi
4:20 am32 °FIce fog.5 mph93%30.15 "Hg1 mi
3:20 am32 °FIce fog.5 mph93%30.15 "Hg1 mi
2:20 am32 °FIce fog.5 mph93%30.15 "Hg1 mi
1:20 am32 °FIce fog.6 mph93%30.15 "Hg1 mi
12:20 am32 °FIce fog.5 mph93%30.18 "Hg1 mi
11:20 pm
Fri, Jan 24
32 °FIce fog.7 mph93%30.18 "Hg1 mi
10:20 pm32 °FIce fog.8 mph93%30.18 "Hg1 mi
9:20 pm32 °FIce fog.9 mph93%30.18 "Hg1 mi
8:20 pm32 °FIce fog.10 mph93%30.18 "Hg2 mi
7:20 pm32 °FIce fog.7 mph93%30.18 "Hg2 mi
6:20 pm32 °FIce fog.6 mph93%30.18 "Hg2 mi
Weather by CustomWeather, © 2020

See weather overview

Advertising